Regional Weather Roundup
Issued by NWS State College, PA

Home | Current Version | Previous Version | Text Only | Print | Product List | Glossary Off
Versions: 1 2 3 4 5 6 7 8 9 10 11 12 13 14 15 16 17 18 19 20 21 22 23 24 25 26 27 28 29 30 31 32 33 34 35 36 37 38 39 40 41 42 43 44 45 46 47 48 49 50

000
ASUS41 KCTP 012210
RWRCTP

REGIONAL WEATHER ROUNDUP
NATIONAL WEATHER SERVICE STATE COLLEGE PA
600 PM EDT WED OCT 01 2014

Note: "fair" indicates few or no clouds below 12,000 feet with no
significant weather and/or obstructions to visibility.

* = STATION THAT DOES NOT REPORT PRECIPITATION /E.G. RAIN...SNOW...ETC/
    THUNDER OR FOG.

PAZ002>004-007>009-013>016-020>023-029>032-012300-
WESTERN PENNSYLVANIA

CITY           SKY/WX    TMP DP  RH WIND       PRES   REMARKS
ERIE           SUNNY     66  59  78 NE10      30.02R
MEADVILLE      SUNNY     68  56  65 SW3       30.02S
FRANKLIN*      CLOUDY    66  52  59 S5        30.04S
NEW CASTLE       N/A     67  58  72 CALM      30.03S
BEAVER COUNTY  SUNNY     66  55  68 CALM      30.03S
BUTLER*        SUNNY     66  55  68 CALM      30.04R
PITTSBURGH INT MOSUNNY   66  56  70 CALM      30.02S
PITTSBURGH     SUNNY     66  54  65 W5        30.01S
INDIANA*       PTSUNNY   72  54  53 MISG      30.05R
LATROBE        MOSUNNY   72  61  68 SW9       30.02R
WASHINGTON CO* SUNNY     66  55  68 CALM      30.04S
$$

PAZ004>006-010>012-017>019-024>028-033>037-041-042-045-046-049>053-012300-
CENTRAL PENNSYLVANIA

CITY           SKY/WX    TMP DP  RH WIND       PRES   REMARKS
BRADFORD       MOCLDY    68  51  54 SE3       30.06R
DUBOIS         CLOUDY    68  55  63 E6        30.04R
CLEARFIELD     CLEAR     68  54  60 VRB3      30.04S
JOHNSTOWN      MOSUNNY   65  53  65 SE6       30.04S
ALTOONA        CLEAR     66  57  72 SE6       30.05R
STATE COLLEGE  PTCLDY    68  57  68 CALM      30.04S
WILLIAMSPORT   CLEAR     71  57  61 SW3       30.00F
SELINSGROVE    CLEAR     71  54  54 CALM      30.02S
FT INDIANTOWN  CLEAR     71  62  74 W6        30.03R
CAPITAL CITY   PTCLDY    70  57  63 SW6       30.02S
HARRISBURG     PTCLDY    69  60  73 CALM      30.02R
YORK           CLEAR     69  57  65 NW3       30.03S
$$

PAZ038>040-043-044-047-048-054-055-060>062-067>071-012300-
EASTERN PENNSYLVANIA

CITY           SKY/WX    TMP DP  RH WIND       PRES   REMARKS
SCRANTON       CLEAR     69  53  56 E6        30.03S
MOUNT POCONO   PTCLDY    61  53  75 E8        30.07S
ALLENTOWN      MOCLDY    68  55  63 E9        30.03S
QUAKERTOWN*    PTCLDY    68  57  68 NE5       30.04S
READING        CLOUDY    71  56  58 NE9       30.01R
LANCASTER      CLEAR     71  56  58 CALM      30.02R
COATESVILLE    MOCLDY    70  55  60 CALM      30.03S
POTTSTOWN      PTCLDY    68  57  68 NE6       30.04R
BLUE BELL      PTCLDY    70  59  68 NE3       30.02R
DOYLESTOWN     CLOUDY    67  57  70 VRB5      30.03R
WILLOW GROVE   NOT AVBL
NORTH PHILA    CLOUDY    69  56  62 NE7       30.04S
PHILADELPHIA   PTCLDY    70  58  65 NE8       30.02R
$$


USA.gov is the U.S. government's official web portal to all federal, state and local government web resources and services.